This is the latest recevied weather packets stored in our database for station/object OM2RC-6. If no packets are shown the sender has not sent any weather packets the latest 10 day(s).
| Time | Temp. | Humidity | Pressure | Rain* | Wind** | Luminosity | Snow |
|---|---|---|---|---|---|---|---|
| 1778218822 | 12.22° C | 100% | 1018.4 hPa | - | - | - | - |
| 1778218521 | 12.22° C | 100% | 1018.4 hPa | - | - | - | - |
| 1778218220 | 11.67° C | 100% | 1018.3 hPa | - | - | - | - |
| 1778217918 | 11.67° C | 100% | 1018.2 hPa | - | - | - | - |
| 1778217618 | 11.11° C | 100% | 1018.2 hPa | - | - | - | - |
| 1778217316 | 11.11° C | 100% | 1018.2 hPa | - | - | - | - |
| 1778217016 | 11.11° C | 100% | 1018.2 hPa | - | - | - | - |
| 1778216714 | 11.11° C | 100% | 1018.1 hPa | - | - | - | - |
| 1778216412 | 11.11° C | 100% | 1018.1 hPa | - | - | - | - |
| 1778216112 | 11.11° C | 100% | 1018.2 hPa | - | - | - | - |
| 1778215811 | 10.56° C | 100% | 1018.2 hPa | - | - | - | - |
| 1778215510 | 11.11° C | 100% | 1017.9 hPa | - | - | - | - |
| 1778215209 | 11.11° C | 100% | 1018 hPa | - | - | - | - |
| 1778214908 | 10.56° C | 100% | 1018 hPa | - | - | - | - |
| 1778214607 | 10.56° C | 100% | 1017.9 hPa | - | - | - | - |
| 1778214306 | 10.56° C | 100% | 1017.9 hPa | - | - | - | - |
| 1778214003 | 10.56° C | 100% | 1017.9 hPa | - | - | - | - |
| 1778213701 | 10° C | 100% | 1017.9 hPa | - | - | - | - |
| 1778213399 | 10° C | 100% | 1017.9 hPa | - | - | - | - |
| 1778213098 | 10° C | 100% | 1017.7 hPa | - | - | - | - |
| 1778212796 | 10° C | 100% | 1017.7 hPa | - | - | - | - |
| 1778212495 | 10.56° C | 100% | 1017.8 hPa | - | - | - | - |
| 1778212194 | 10.56° C | 100% | 1017.6 hPa | - | - | - | - |
| 1778211592 | 10.56° C | 100% | 1017.7 hPa | - | - | - | - |
| 1778211291 | 10.56° C | 100% | 1017.5 hPa | - | - | - | - |
* Rain since midnight (hover to see other rain measurements)
** Current wind speed in m/s (hover to see current wind gust speed)